Location: Barrio Las Umbrías
(40.4173°N, 4.8685°W)
Time: 11:42:55
(UTC+00:00)

Cosmos 1812 - Pass Details

Date: 17 August 2022
Orbit: 509 x 512 km, 82.5° (Epoch: 27 September)

Event Time Altitude Azimuth Distance (km) Brightness Sun altitude
Rises 19:40:44 0° 352° (N) 2,628 6.7 -5.5°
Reaches altitude 10° 19:42:52 10° 353° (N) 1,738 5.8 -5.9°
Maximum altitude 19:46:41 86° 83° (E) 518 2.7 -6.6°
Drops below altitude 10° 19:50:28 10° 172° (S) 1,726 5.0 -7.3°
Sets 19:52:35 0° 173° (S) 2,608 6.0 -7.6°
